When you browse on this site, cookies collect data to enhance your experience and personalize the content and advertising you see.
Visit our Privacy Policy to learn more. By continuing to use the site, you agree to this use of cookies and data.
  • In France
  • List of Countries
  • For 7 days
  • Water Temperature
  • Satellite Maps
  • Weather Map
  • Weather Widgets
  • user-avatar
    Login

    Hourly Weather Bukittinggi

    Today, 24 May, Friday

    Time Temperature Precipitation Wind Pressure Humidity
    00:00 +19°C° 0.3 mm 0 mps 682 mmHg 95%
    01:00 +19°C° 0 mm 0 mps 682 mmHg 95%
    02:00 +19°C° 0 mm 0 mps 681 mmHg 94%
    03:00 +19°C° 0 mm 0 mps 681 mmHg 94%
    04:00 +20°C° 0 mm 1 mps 681 mmHg 93%
    05:00 +20°C° 0 mm 1 mps 681 mmHg 92%
    06:00 +21°C° 0 mm 1 mps 681 mmHg 91%
    07:00 +21°C° 0 mm 1 mps 682 mmHg 91%
    08:00 +23°C° 0 mm 1 mps 682 mmHg 79%
    09:00 +26°C° 0 mm 1 mps 683 mmHg 68%
    10:00 +29°C° 0 mm 1 mps 684 mmHg 56%
    11:00 +30°C° 0.1 mm 1 mps 684 mmHg 54%
    12:00 +31°C° 0.1 mm 1 mps 683 mmHg 51%
    13:00 +32°C° 0.1 mm 1 mps 683 mmHg 48%
    14:00 +31°C° 0.5 mm 1 mps 682 mmHg 54%
    15:00 +30°C° 0.5 mm 1 mps 682 mmHg 60%
    16:00 +29°C° 0.5 mm 1 mps 681 mmHg 66%
    17:00 +27°C° 0.4 mm 1 mps 681 mmHg 74%
    18:00 +23°C° 0.4 mm 0 mps 681 mmHg 82%
    19:00 +21°C° 0.4 mm 0 mps 680 mmHg 90%
    20:00 +20°C° 0 mm 0 mps 681 mmHg 92%
    21:00 +20°C° 0 mm 0 mps 681 mmHg 93%
    22:00 +20°C° 0 mm 0 mps 682 mmHg 94%
    23:00 +19°C° 0 mm 0 mps 682 mmHg 94%

    Tomorrow, 25 May, Saturday

    Time Temperature Precipitation Wind Pressure Humidity
    00:00 +19°C° 0 mm 0 mps 682 mmHg 94%
    01:00 +19°C° 0 mm 0 mps 681 mmHg 94%
    02:00 +19°C° 0 mm 0 mps 681 mmHg 94%
    03:00 +18°C° 0 mm 0 mps 681 mmHg 93%
    04:00 +18°C° 0 mm 0 mps 680 mmHg 92%
    05:00 +19°C° 0 mm 0 mps 681 mmHg 91%
    06:00 +19°C° 0 mm 0 mps 681 mmHg 90%
    07:00 +19°C° 0 mm 0 mps 681 mmHg 89%
    08:00 +22°C° 0 mm 0 mps 682 mmHg 78%
    09:00 +25°C° 0 mm 0 mps 683 mmHg 66%
    10:00 +28°C° 0 mm 0 mps 684 mmHg 55%
    11:00 +28°C° 0.1 mm 0 mps 684 mmHg 54%
    12:00 +31°C° 0.1 mm 1 mps 683 mmHg 54%
    13:00 +31°C° 0.1 mm 1 mps 683 mmHg 53%
    14:00 +30°C° 1 mm 1 mps 682 mmHg 62%
    15:00 +28°C° 1 mm 1 mps 681 mmHg 71%
    16:00 +27°C° 1 mm 1 mps 680 mmHg 81%
    17:00 +25°C° 1.5 mm 1 mps 680 mmHg 85%
    18:00 +24°C° 1.5 mm 1 mps 680 mmHg 90%
    19:00 +22°C° 1.5 mm 1 mps 680 mmHg 94%
    20:00 +22°C° 0.5 mm 1 mps 681 mmHg 94%
    21:00 +20°C° 0.5 mm 0 mps 681 mmHg 95%
    22:00 +20°C° 0.5 mm 0 mps 682 mmHg 95%
    23:00 +19°C° 0 mm 0 mps 682 mmHg 95%

    Day after tomorrow, 26 May, Sunday

    Time Temperature Precipitation Wind Pressure Humidity
    00:00 +19°C° 0 mm 0 mps 681 mmHg 95%
    01:00 +19°C° 0 mm 0 mps 681 mmHg 95%
    02:00 +19°C° 0 mm 0 mps 681 mmHg 95%
    03:00 +19°C° 0 mm 0 mps 680 mmHg 95%
    04:00 +18°C° 0 mm 0 mps 680 mmHg 94%
    05:00 +19°C° 0 mm 0 mps 680 mmHg 93%
    06:00 +19°C° 0 mm 0 mps 681 mmHg 93%
    07:00 +19°C° 0 mm 0 mps 681 mmHg 92%
    08:00 +22°C° 0 mm 0 mps 682 mmHg 80%
    09:00 +25°C° 0 mm 0 mps 682 mmHg 69%
    10:00 +28°C° 0 mm 0 mps 683 mmHg 57%
    11:00 +30°C° 0 mm 1 mps 683 mmHg 54%
    12:00 +31°C° 0 mm 1 mps 683 mmHg 52%
    13:00 +32°C° 0 mm 1 mps 682 mmHg 49%
    14:00 +30°C° 0.7 mm 1 mps 681 mmHg 59%
    15:00 +29°C° 0.7 mm 1 mps 681 mmHg 68%
    16:00 +27°C° 0.7 mm 1 mps 680 mmHg 77%
    17:00 +26°C° 0.5 mm 1 mps 680 mmHg 83%
    18:00 +24°C° 0.5 mm 1 mps 680 mmHg 89%
    19:00 +22°C° 0.5 mm 1 mps 680 mmHg 95%
    20:00 +22°C° 0.1 mm 1 mps 681 mmHg 95%
    21:00 +20°C° 0.1 mm 0 mps 681 mmHg 96%
    22:00 +20°C° 0.1 mm 0 mps 682 mmHg 97%
    23:00 +20°C° 0.1 mm 0 mps 681 mmHg 96%

    27 May, Monday

    Time Temperature Precipitation Wind Pressure Humidity
    00:00 +19°C° 0.1 mm 0 mps 681 mmHg 96%
    01:00 +19°C° 0.1 mm 0 mps 681 mmHg 95%
    02:00 +19°C° 0.4 mm 0 mps 680 mmHg 95%
    03:00 +19°C° 0.4 mm 0 mps 680 mmHg 94%
    04:00 +19°C° 0.4 mm 0 mps 680 mmHg 93%
    05:00 +19°C° 0.4 mm 0 mps 680 mmHg 93%
    06:00 +19°C° 0.4 mm 0 mps 681 mmHg 92%
    07:00 +19°C° 0.4 mm 0 mps 681 mmHg 91%
    08:00 +22°C° 0 mm 0 mps 682 mmHg 83%
    09:00 +24°C° 0 mm 0 mps 682 mmHg 75%
    10:00 +26°C° 0 mm 0 mps 683 mmHg 67%
    11:00 +26°C° 0.1 mm 0 mps 682 mmHg 66%
    12:00 +26°C° 0.1 mm 0 mps 682 mmHg 66%
    13:00 +27°C° 0.1 mm 0 mps 681 mmHg 66%
    14:00 +26°C° 1.4 mm 0 mps 681 mmHg 71%
    15:00 +25°C° 1.4 mm 0 mps 680 mmHg 76%
    16:00 +27°C° 1.4 mm 1 mps 680 mmHg 81%
    17:00 +23°C° 0.9 mm 0 mps 680 mmHg 85%
    18:00 +22°C° 0.9 mm 0 mps 680 mmHg 90%
    19:00 +21°C° 0.9 mm 0 mps 680 mmHg 95%
    20:00 +21°C° 1.1 mm 0 mps 681 mmHg 96%
    21:00 +20°C° 1.1 mm 0 mps 681 mmHg 96%
    22:00 +20°C° 1.1 mm 0 mps 682 mmHg 97%
    23:00 +20°C° 0.5 mm 0 mps 681 mmHg 97%

    28 May, Tuesday

    Time Temperature Precipitation Wind Pressure Humidity
    00:00 +20°C° 0.5 mm 0 mps 681 mmHg 96%
    01:00 +20°C° 0.5 mm 0 mps 681 mmHg 96%
    02:00 +20°C° 0.2 mm 0 mps 680 mmHg 96%
    03:00 +19°C° 0.2 mm 0 mps 680 mmHg 95%
    04:00 +19°C° 0.2 mm 0 mps 680 mmHg 95%
    05:00 +19°C° 0.1 mm 0 mps 680 mmHg 94%
    06:00 +20°C° 0.1 mm 0 mps 681 mmHg 93%
    07:00 +20°C° 0.1 mm 0 mps 681 mmHg 93%
    08:00 +22°C° 0.1 mm 0 mps 682 mmHg 84%
    09:00 +24°C° 0.1 mm 0 mps 682 mmHg 75%
    10:00 +26°C° 0.1 mm 0 mps 683 mmHg 66%
    11:00 +26°C° 0.3 mm 0 mps 683 mmHg 65%
    12:00 +27°C° 0.3 mm 0 mps 682 mmHg 65%
    13:00 +27°C° 0.3 mm 0 mps 681 mmHg 64%
    14:00 +26°C° 0.9 mm 0 mps 681 mmHg 69%
    15:00 +26°C° 0.9 mm 0 mps 680 mmHg 73%
    16:00 +25°C° 0.9 mm 0 mps 680 mmHg 78%
    17:00 +24°C° 0.7 mm 0 mps 680 mmHg 83%
    18:00 +22°C° 0.7 mm 0 mps 680 mmHg 88%
    19:00 +21°C° 0.7 mm 0 mps 680 mmHg 93%
    20:00 +21°C° 1.1 mm 0 mps 681 mmHg 95%
    21:00 +21°C° 1.1 mm 0 mps 681 mmHg 96%
    22:00 +20°C° 1.1 mm 0 mps 681 mmHg 97%
    23:00 +20°C° 1.9 mm 0 mps 681 mmHg 97%

    29 May, Wednesday

    Time Temperature Precipitation Wind Pressure Humidity
    00:00 +20°C° 1.9 mm 0 mps 681 mmHg 97%
    01:00 +20°C° 1.9 mm 0 mps 681 mmHg 97%
    02:00 +20°C° 2.1 mm 0 mps 680 mmHg 96%
    03:00 +20°C° 2.1 mm 0 mps 680 mmHg 96%
    04:00 +19°C° 2.1 mm 0 mps 680 mmHg 95%
    05:00 +20°C° 1.1 mm 0 mps 680 mmHg 95%
    06:00 +20°C° 1.1 mm 0 mps 681 mmHg 94%
    07:00 +20°C° 1.1 mm 0 mps 681 mmHg 94%
    08:00 +21°C° 1 mm 0 mps 682 mmHg 89%
    09:00 +23°C° 1 mm 0 mps 682 mmHg 84%
    10:00 +24°C° 1 mm 0 mps 683 mmHg 79%
    11:00 +24°C° 1.8 mm 0 mps 682 mmHg 80%
    12:00 +24°C° 1.8 mm 0 mps 682 mmHg 80%
    13:00 +25°C° 1.8 mm 0 mps 682 mmHg 80%
    14:00 +24°C° 2.4 mm 0 mps 681 mmHg 84%
    15:00 +23°C° 2.4 mm 0 mps 681 mmHg 87%
    16:00 +23°C° 2.4 mm 0 mps 680 mmHg 90%
    17:00 +22°C° 2.8 mm 0 mps 680 mmHg 92%
    18:00 +21°C° 2.8 mm 0 mps 680 mmHg 93%
    19:00 +20°C° 2.8 mm 0 mps 681 mmHg 95%
    20:00 +20°C° 3.1 mm 0 mps 681 mmHg 95%
    21:00 +20°C° 3.1 mm 0 mps 682 mmHg 94%
    22:00 +20°C° 3.1 mm 0 mps 682 mmHg 94%
    23:00 +20°C° 1.4 mm 0 mps 682 mmHg 95%
    Show more